Theta_e
304 296 293 293 296 298 299 300 301 295 294 294 293 292 294 295 295 295 297 298 296 296 296 296 297 297 297 298 300 300 298 293 294 294 295 296 296 295 295 298 303 307 311 313 315 316 317 319 320 320 319 319 318 317 316 315 316 317 317 316 316 318 319 320 320 321 322 322 322 322 321 320 322 321 320 319 319 319 320 320 320 319 319 319 318 318
304 295 295 297 299 300 299 300 300 299 298 293 292 291 292 294 294 297 298 299 295 297 296 296 296 296 298 300 301 301 297 296 296 296 297 297 296 296 296 296 297 301 305 306 310 314 314 316 317 319 319 317 317 317 316 315 315 317 317 317 317 317 318 319 320 321 321 323 323 322 322 322 322 321 320 319 319 319 319 319 320 319 319 319 319 318
295 293 297 300 301 302 300 299 300 299 297 295 292 290 290 293 295 296 298 299 297 294 295 293 292 295 297 299 301 300 300 300 299 300 300 301 300 298 296 296 297 297 298 300 305 309 313 315 316 318 319 319 319 319 318 317 316 315 316 317 317 317 317 318 319 320 320 321 322 323 322 323 321 321 321 321 321 320 319 319 319 319 319 319 319 319
291 295 300 303 302 300 298 299 298 297 297 295 293 290 291 291 293 289 294 296 296 296 288 290 292 296 298 298 299 300 300 300 300 299 300 301 302 302 301 301 300 299 298 298 300 302 307 313 315 316 317 318 319 319 319 318 316 316 316 316 317 317 317 318 318 318 320 320 321 322 321 320 321 319 317 318 319 319 318 319 319 319 319 319 319 319
294 299 303 303 301 299 297 297 296 295 293 295 295 293 293 289 293 293 291 295 292 293 293 292 294 297 298 296 297 301 300 299 300 298 298 299 300 302 303 302 302 302 301 300 300 301 301 306 312 315 317 318 318 319 319 319 317 317 316 316 317 317 317 318 317 317 318 317 316 316 311 311 311 311 312 314 316 317 318 318 318 319 319 319 319 319
296 302 304 301 300 299 297 295 295 295 292 293 295 296 295 291 292 292 292 293 291 292 291 293 286 290 296 298 299 302 299 299 300 299 299 300 299 299 299 300 302 301 301 301 302 302 302 303 308 313 315 317 318 319 320 320 319 318 317 317 317 318 318 318 318 318 318 317 317 315 315 313 313 314 314 314 315 316 317 317 319 318 319 319 319 319
298 302 302 299 299 298 297 296 297 297 292 291 292 298 297 295 293 291 290 290 285 286 289 295 289 286 290 293 297 299 300 301 299 298 301 302 301 300 300 301 301 301 301 300 300 301 301 302 303 308 313 317 318 319 321 320 320 319 318 317 317 317 318 318 318 317 317 317 317 316 316 316 315 315 316 317 317 317 318 318 317 319 318 319 319 318
298 298 299 300 298 297 296 294 298 298 294 290 296 296 297 296 295 293 292 289 286 286 287 289 292 286 288 294 293 297 298 299 299 299 298 300 302 302 302 302 302 302 302 303 302 301 301 302 303 304 310 315 318 319 320 320 321 320 318 317 317 317 317 318 318 317 317 317 317 316 316 316 316 316 316 317 317 316 315 315 317 317 317 317 318 319
298 295 297 296 296 296 295 297 300 300 295 294 296 298 297 297 294 292 293 290 285 287 287 286 287 285 286 290 295 295 294 296 297 299 299 299 300 302 303 303 303 303 303 303 303 302 302 302 302 305 306 312 316 318 319 320 321 321 320 318 317 317 317 317 317 317 317 317 317 317 316 316 316 317 317 314 314 315 314 314 315 315 317 317 317 318
299 299 299 299 296 294 298 300 300 300 295 297 299 300 298 297 294 295 289 288 287 286 285 288 287 285 286 291 289 292 295 296 297 299 299 300 300 301 302 303 303 303 302 302 303 304 304 303 303 304 306 308 313 317 319 320 321 321 321 319 317 316 317 317 317 317 317 317 316 317 316 316 316 316 316 312 313 313 313 315 315 314 315 316 316 317
298 301 302 299 296 299 299 300 302 301 300 301 300 296 294 296 295 289 288 288 287 285 286 290 288 289 283 289 290 291 293 297 297 297 298 299 300 301 302 303 304 303 302 302 302 302 303 303 302 301 303 307 310 314 317 318 320 320 320 320 317 317 318 317 317 317 317 317 317 317 317 316 316 316 315 313 313 313 311 314 314 314 315 315 316 316
297 296 297 297 301 300 301 297 302 303 301 301 296 293 293 288 291 290 288 288 284 282 290 293 290 289 283 287 292 296 297 296 299 298 295 297 299 301 302 302 304 303 303 302 302 301 301 300 298 299 302 304 307 311 315 317 318 319 320 320 319 318 317 317 317 317 317 317 317 317 317 317 317 316 316 315 315 314 314 314 314 314 313 314 314 315
292 294 297 299 302 300 297 296 297 298 299 299 295 295 289 284 285 282 286 282 283 283 290 293 292 286 287 292 291 292 296 296 296 298 299 298 299 300 301 302 303 303 302 301 301 301 301 300 299 299 301 303 305 308 313 315 317 318 319 319 319 318 318 317 317 317 317 317 317 317 317 317 317 317 317 316 316 316 315 315 314 313 314 314 313 314
289 296 297 295 298 301 300 292 291 291 295 295 293 291 287 282 281 281 284 285 286 288 292 290 293 287 292 295 299 299 299 297 296 295 296 299 300 300 301 302 302 302 301 301 301 301 301 301 300 300 301 302 304 307 310 313 315 317 318 319 319 319 319 318 317 317 317 317 317 318 318 318 317 317 317 317 317 317 316 316 315 315 315 314 315 315
283 285 291 295 291 300 299 297 296 294 295 295 298 295 289 288 284 280 283 281 283 285 285 287 288 284 288 291 292 294 293 299 303 299 295 296 299 300 302 301 301 299 298 300 300 300 301 301 300 300 300 302 304 305 308 311 314 316 317 318 318 318 318 318 317 317 317 317 317 318 318 318 318 317 317 317 318 317 316 316 316 316 315 315 315 315
285 287 294 300 298 301 297 300 301 297 294 297 298 298 291 288 290 284 286 287 287 282 281 285 287 291 294 300 292 291 291 293 292 296 294 296 297 297 298 299 299 299 298 297 299 300 300 301 300 299 299 300 302 304 306 309 313 315 317 318 318 319 319 318 317 318 317 317 318 318 318 318 318 316 317 317 316 317 318 317 316 316 315 316 315 314
286 283 292 298 301 299 299 300 299 301 286 293 295 288 292 298 295 287 285 283 283 283 284 287 285 287 294 297 299 301 298 294 292 292 292 294 295 294 296 297 297 298 297 296 297 299 301 301 300 300 299 299 300 302 305 308 311 314 316 316 317 318 318 318 318 318 318 318 317 317 318 318 317 317 316 317 317 317 317 316 316 316 315 314 314 314
284 284 290 293 294 300 302 301 301 301 299 297 288 293 298 295 291 288 283 282 283 281 281 288 285 286 287 285 293 297 297 297 292 293 294 294 295 295 298 297 298 299 299 299 298 298 298 299 300 300 299 299 299 300 302 305 309 313 315 316 317 317 317 318 319 318 319 318 317 317 317 318 318 318 318 318 318 317 315 315 315 314 313 314 313 314
289 282 286 291 295 298 299 300 297 300 302 296 294 302 292 285 284 285 284 280 278 280 282 286 286 287 288 290 288 288 293 295 295 294 293 294 295 296 298 299 300 300 299 299 298 296 295 295 296 297 299 299 298 298 300 303 307 310 313 315 317 317 318 319 319 319 319 319 319 319 318 318 318 318 318 318 317 315 315 315 315 315 315 312 312 312
288 283 285 290 293 295 296 296 286 292 298 292 294 294 293 292 289 287 287 287 286 281 282 283 285 284 291 292 295 294 292 293 295 295 294 296 297 298 298 300 300 301 301 300 298 296 296 296 296 297 298 298 298 297 298 298 301 307 311 312 314 315 316 317 317 317 318 319 319 319 318 318 318 318 318 318 317 316 316 316 316 315 314 314 312 314
284 288 280 287 290 294 287 293 290 293 290 291 290 288 290 288 289 291 290 288 285 283 284 282 282 285 293 297 296 296 297 294 295 296 297 297 297 298 299 300 301 301 301 299 297 296 296 296 296 296 296 297 294 293 294 296 299 303 308 310 312 314 314 315 317 317 318 319 319 318 318 318 318 318 318 317 317 316 316 316 313 315 315 312 314 313
285 285 282 285 285 285 286 292 295 296 296 294 292 289 293 290 286 283 282 291 289 286 281 282 281 289 289 292 297 297 298 295 295 296 297 297 297 298 299 300 301 301 299 296 296 297 297 296 295 292 291 290 291 293 294 296 297 299 303 308 311 312 314 314 315 317 318 318 318 318 318 318 318 318 318 317 317 316 317 316 315 314 311 313 314 313
289 286 286 282 284 286 290 290 292 291 292 291 293 291 295 294 292 287 282 285 288 289 287 280 279 286 289 288 293 297 297 296 296 297 298 299 299 299 300 301 301 296 295 295 295 295 294 293 292 291 291 292 294 295 293 293 296 298 301 305 308 310 312 314 315 316 316 317 316 317 318 317 316 316 315 316 316 315 315 315 312 311 312 312 311 310
292 283 281 283 285 286 288 290 290 291 291 289 290 290 291 290 292 290 288 290 288 288 286 286 284 287 293 283 287 289 289 290 293 294 297 298 299 300 300 295 292 292 293 292 290 289 291 289 287 288 289 291 292 292 294 294 295 297 299 302 305 307 310 311 312 313 313 314 314 314 313 313 311 310 311 313 314 313 312 311 309 309 311 312 309 309
285 284 284 280 278 279 283 286 287 288 289 286 286 289 291 294 294 291 286 283 284 286 288 286 281 287 290 285 283 284 287 290 291 292 291 294 296 297 296 291 290 291 291 291 291 290 289 287 289 292 292 292 293 292 292 293 294 295 297 298 302 305 306 306 304 305 308 307 308 305 307 307 306 307 308 310 309 309 308 307 308 306 309 308 308 309
286 284 282 276 274 272 272 274 277 281 284 287 287 288 290 290 290 289 285 287 284 287 288 285 285 292 292 288 288 285 283 286 288 288 287 288 292 296 296 292 291 290 292 292 291 289 290 291 291 290 290 292 292 293 293 292 293 293 293 295 295 299 295 299 294 300 303 303 304 304 304 305 303 306 306 307 306 307 307 307 307 307 307 308 311 307
283 284 284 282 280 278 280 282 284 286 285 284 285 287 288 290 292 292 290 287 285 287 287 288 289 291 293 294 293 287 285 285 289 289 290 291 291 291 289 290 291 292 292 292 292 292 289 289 291 292 291 292 291 289 290 290 291 289 290 291 290 292 294 293 295 297 300 299 302 303 302 302 303 305 305 305 306 305 304 305 305 305 306 304 307 307
285 284 285 284 282 283 283 281 282 286 285 285 287 286 289 289 291 290 288 285 292 288 284 290 292 289 292 294 296 295 287 284 285 286 287 288 290 292 293 291 292 291 291 290 290 290 292 293 293 291 291 289 290 288 288 288 289 291 291 292 291 290 291 292 293 295 297 297 299 301 301 301 301 302 304 304 303 303 303 302 301 302 302 300 302 304
285 283 286 286 284 285 285 283 284 284 285 286 286 286 286 288 286 284 285 288 288 285 285 291 292 290 293 295 297 295 289 292 292 293 292 289 287 286 287 289 291 292 293 292 292 292 292 293 294 293 290 289 288 288 288 288 288 287 287 288 289 289 290 288 292 293 295 295 298 300 301 299 297 297 298 298 299 300 300 300 299 298 298 298 299 300
287 283 283 285 284 285 285 285 285 284 284 284 285 286 287 287 286 287 286 287 287 286 287 287 288 291 294 296 297 294 289 292 289 286 284 285 286 286 286 289 291 292 292 292 293 293 293 293 293 293 292 289 290 289 289 289 290 290 290 289 289 290 291 288 291 293 293 295 298 297 295 294 293 295 295 296 298 299 298 298 297 297 297 297 297 298
286 284 288 282 281 282 283 285 285 286 285 284 285 286 286 286 287 287 287 287 287 286 288 288 287 287 294 299 298 294 289 287 286 287 288 287 285 286 287 288 289 290 291 291 291 292 293 294 293 292 292 293 292 292 291 292 291 290 289 290 290 291 291 290 291 290 292 294 292 290 290 291 292 293 294 296 296 296 296 297 296 296 296 295 295 296
286 283 285 285 281 280 283 282 283 284 285 284 283 284 284 285 284 285 285 287 286 284 287 288 287 288 294 298 291 288 287 289 292 292 291 289 287 286 286 288 288 289 290 291 291 290 290 292 293 293 293 294 293 292 291 291 290 290 291 290 290 291 291 291 291 291 290 290 289 290 291 291 291 292 293 294 295 295 295 294 294 295 296 295 293 293
284 284 281 282 280 280 284 284 282 282 282 280 281 284 285 286 287 288 289 289 289 290 286 284 286 294 296 292 294 293 287 287 287 287 288 288 288 287 287 289 289 289 290 291 290 290 290 292 292 293 293 292 292 292 292 292 290 291 291 290 290 290 292 292 292 292 291 290 290 291 292 291 291 292 292 293 294 293 293 294 294 294 295 295 294 292
284 283 280 283 277 280 282 283 283 280 275 276 289 290 289 286 286 285 286 288 290 292 290 292 293 295 293 293 296 295 289 289 291 291 291 292 291 287 287 287 289 289 288 288 289 290 291 292 291 291 290 291 292 292 291 291 292 293 290 290 289 290 292 292 293 293 292 291 291 292 292 292 292 292 292 292 292 292 292 293 294 293 293 293 292 294
283 283 280 283 279 277 281 283 279 274 276 287 286 289 292 291 290 289 289 291 292 293 293 293 294 295 296 293 291 292 291 292 293 293 295 293 290 290 290 289 288 288 289 289 289 288 289 290 289 289 288 289 289 290 290 290 291 288 288 288 289 290 292 292 293 293 293 292 292 291 291 292 292 292 292 291 292 292 292 292 292 291 292 293 293 294
281 281 280 281 281 281 277 279 273 275 285 286 286 287 290 292 291 290 288 291 292 293 293 292 293 295 296 297 297 296 294 295 293 295 296 297 295 295 292 292 293 291 292 294 292 293 290 290 291 292 293 290 289 289 291 292 290 289 289 288 290 290 291 292 292 293 293 292 292 291 292 292 291 291 291 291 291 291 292 291 292 291 290 291 291 290
284 283 281 277 281 275 277 278 278 284 283 284 285 287 288 286 287 287 283 288 293 294 294 293 294 295 296 298 299 298 295 293 293 298 301 299 296 293 295 296 296 296 296 297 294 294 293 293 293 294 292 291 290 289 289 290 290 290 288 288 289 290 291 291 292 292 292 292 292 291 291 291 291 291 291 291 291 291 291 291 290 290 290 290 290 290
282 278 279 278 277 281 276 275 276 275 274 280 287 289 293 292 293 293 288 287 293 295 296 295 294 295 295 296 298 294 293 293 293 296 301 301 296 294 293 295 296 296 296 297 298 296 294 293 294 292 292 292 290 287 288 288 290 290 289 289 289 289 290 290 291 292 292 292 292 291 292 292 292 291 290 290 290 291 290 290 290 291 290 292 290 290
286 285 283 280 278 277 276 273 273 273 277 286 287 289 290 289 291 291 288 284 291 291 294 295 295 296 296 296 295 292 292 291 293 298 300 297 302 298 297 298 298 304 307 306 305 304 305 302 292 292 291 290 290 287 287 287 288 289 289 289 289 289 290 290 291 291 291 292 292 291 291 291 291 291 290 290 290 290 289 289 290 290 289 291 291 290
282 281 281 278 277 276 275 274 273 276 277 282 285 287 289 288 293 290 280 280 288 289 292 293 294 294 295 295 293 293 293 290 293 297 295 296 300 301 304 306 306 305 306 304 301 300 299 295 293 292 292 291 290 286 286 286 287 288 289 288 288 289 290 291 291 292 292 290 290 290 290 290 290 290 290 289 289 289 289 289 289 289 289 289 291 291
279 278 280 276 276 277 278 273 274 276 282 284 286 288 288 292 291 283 278 285 288 287 290 292 292 294 293 291 293 292 296 299 299 295 293 294 295 295 294 297 300 301 302 300 300 296 297 297 294 294 295 294 291 286 286 287 288 288 288 288 287 289 291 292 292 290 290 289 289 289 290 290 290 289 289 289 289 288 288 289 289 288 288 289 289 289
279 279 279 279 275 274 274 273 273 277 282 285 285 289 291 291 281 282 288 288 287 288 289 291 292 290 289 291 291 294 297 298 297 297 295 295 296 297 295 295 295 294 293 292 293 292 295 295 293 292 290 289 288 287 287 288 288 288 287 287 288 290 292 292 290 288 289 289 289 289 289 289 289 289 289 288 288 288 288 289 289 288 288 289 289 288
278 276 276 275 275 276 276 273 272 270 280 286 289 288 290 286 286 288 287 287 287 288 289 289 290 291 289 291 289 290 291 291 291 291 292 292 292 294 295 294 293 293 294 294 294 294 292 292 292 292 291 291 289 287 287 287 288 288 287 288 290 291 291 290 288 288 289 288 288 288 288 288 288 288 288 288 288 288 288 288 288 288 288 288 288 288
281 272 271 274 278 270 275 274 275 280 283 288 290 285 288 293 292 289 291 290 290 289 289 290 289 290 289 289 290 290 289 288 289 289 290 291 291 290 289 289 290 290 291 291 291 291 290 290 290 290 290 289 288 287 286 287 288 288 288 289 291 291 290 288 288 288 288 287 287 287 287 287 288 288 288 288 288 288 288 288 288 288 289 289 289 289
282 277 277 274 279 276 275 280 283 283 284 287 290 290 293 295 293 291 290 291 290 291 289 288 291 290 289 288 289 288 287 287 287 287 287 289 289 290 290 289 289 289 289 290 291 290 288 289 290 290 289 289 287 286 287 287 288 288 288 290 290 290 289 288 287 287 287 287 287 287 287 287 287 288 288 288 288 288 288 288 288 288 288 289 289 290
281 280 279 281 279 280 283 284 284 285 286 287 288 290 290 291 289 289 289 289 289 290 290 290 290 290 289 288 288 288 288 287 287 288 288 288 288 289 289 289 290 289 289 288 289 288 287 287 287 287 288 289 288 285 285 286 287 288 289 289 290 290 288 287 287 287 287 287 287 287 287 287 287 287 287 288 289 289 290 289 288 290 289 289 290 290
279 281 281 279 278 279 276 282 284 286 285 286 288 290 289 288 289 288 288 289 289 289 290 289 289 289 289 288 289 289 289 289 288 289 288 288 289 289 289 289 289 289 289 289 290 287 288 286 287 287 287 287 289 285 283 284 286 287 288 288 287 287 286 287 287 287 287 287 287 286 286 287 287 287 287 288 288 289 289 290 289 289 289 289 290 290
276 282 278 276 278 279 280 281 282 282 284 286 287 287 289 289 288 288 288 288 288 288 288 289 289 289 289 289 290 288 289 289 288 289 289 289 289 289 289 289 289 289 290 289 289 286 286 286 286 287 287 287 288 285 282 282 285 286 286 286 284 284 286 287 287 287 287 287 287 286 287 287 287 287 288 288 288 289 289 289 289 290 290 290 291 291
279 280 272 276 278 279 280 281 282 283 286 287 287 286 288 288 287 286 286 286 286 286 286 287 288 288 289 290 289 288 288 289 289 288 288 289 290 290 290 289 288 288 288 288 289 287 287 286 286 286 286 286 286 285 285 284 283 282 283 284 283 284 286 287 286 287 286 286 286 286 287 287 287 288 288 288 288 289 290 289 289 290 290 290 291 292
279 276 278 278 274 276 277 280 282 279 281 284 285 285 285 285 284 285 286 286 285 285 285 286 287 288 288 289 289 288 288 288 289 289 289 289 289 290 289 289 288 288 288 288 288 287 286 283 282 283 284 285 283 282 282 282 282 279 278 279 281 284 286 286 286 285 285 286 286 286 286 287 287 288 288 288 288 288 288 288 289 289 291 290 288 289
279 279 278 275 274 277 281 281 283 283 283 283 285 285 284 285 285 285 285 286 285 284 284 285 285 286 287 288 289 289 287 288 288 288 288 289 290 290 289 288 288 288 288 288 287 287 287 286 283 281 282 282 281 280 280 279 277 277 276 277 279 282 284 284 285 284 284 285 286 286 287 287 287 288 288 288 288 288 288 288 288 288 288 289 288 288
Wind_Speed
8 13 12 14 18 22 21 20 16 2 2 2 2 4 9 8 6 3 4 2 5 2 12 13 13 11 13 17 16 14 9 6 7 7 8 8 9 9 9 10 12 12 18 8 5 10 11 12 10 9 7 8 8 8 9 10 12 13 14 12 14 12 10 10 10 10 10 11 9 9 11 11 9 9 8 9 9 9 9 9 10 10 9 9 9 9
12 12 15 20 22 21 19 14 12 10 8 3 3 6 6 8 13 5 5 4 3 6 5 7 12 15 14 14 16 9 7 12 11 12 11 11 10 9 10 12 12 15 9 3 8 8 7 9 10 10 9 9 11 12 12 14 16 15 13 14 13 9 11 12 12 11 11 12 12 11 11 10 10 9 10 10 9 10 9 11 11 10 9 10 10 9
13 16 18 25 22 15 13 15 15 16 17 8 5 2 4 7 2 1 4 5 2 3 11 2 8 12 11 13 17 14 14 11 12 14 14 14 14 11 10 11 13 10 11 8 11 9 9 10 9 10 11 12 15 13 14 14 12 12 12 13 11 11 12 13 13 11 13 11 10 11 9 10 8 8 9 10 10 9 10 11 11 10 9 10 9 9
15 14 23 20 12 12 12 15 16 14 12 11 9 5 10 1 6 5 3 0 2 7 1 1 7 11 8 10 16 15 11 9 9 12 13 12 14 14 14 15 14 14 12 12 14 14 11 10 10 9 10 12 10 12 13 13 14 12 12 13 13 13 13 12 14 14 12 11 10 9 8 7 9 8 7 9 8 8 9 12 10 9 10 10 9 10
19 16 23 13 10 14 19 16 16 14 14 13 12 10 8 1 4 4 3 3 1 4 0 5 12 16 13 13 10 12 10 9 11 9 11 11 10 13 11 11 11 14 14 13 13 11 9 9 12 14 15 12 13 16 15 15 14 12 16 16 16 15 15 14 14 14 10 8 7 6 4 3 4 3 4 6 10 10 10 10 10 12 9 9 10 9
12 4 7 11 15 21 18 13 14 13 14 12 14 15 11 4 1 1 0 2 0 6 4 4 6 16 12 14 17 14 8 13 11 15 16 16 15 13 14 15 14 12 11 13 15 15 12 12 12 11 10 12 14 14 15 14 16 16 15 15 14 13 12 13 14 14 11 11 11 10 10 10 9 11 10 13 15 12 13 13 8 7 10 10 10 9
9 4 12 17 18 14 12 12 13 13 13 13 13 15 12 8 4 1 3 1 4 8 3 4 10 17 2 5 8 8 13 17 8 15 17 17 15 14 15 15 15 15 15 12 12 11 8 12 11 11 13 16 16 17 13 13 15 17 15 14 15 14 13 13 12 13 12 12 12 15 16 14 14 14 13 12 8 9 8 6 9 9 7 9 10 10
6 6 5 13 17 14 12 15 15 16 12 16 6 10 9 12 13 8 5 4 5 0 4 1 3 8 16 14 2 6 12 15 13 14 14 14 14 15 14 16 15 16 16 15 16 16 15 14 14 16 17 15 17 16 11 14 14 16 17 14 15 13 13 12 12 14 15 15 14 14 14 13 14 15 16 11 10 7 6 8 9 8 8 8 10 10
19 14 16 14 13 14 17 18 14 18 14 5 6 13 14 16 8 3 6 7 3 2 10 2 2 6 13 7 9 8 9 14 16 14 15 15 15 16 16 17 18 18 18 17 16 16 17 17 16 16 14 17 16 11 13 16 16 15 14 15 14 14 13 12 13 14 15 15 15 15 13 13 13 13 12 6 6 8 6 8 7 8 8 8 9 9
1 16 20 18 13 14 15 14 8 13 15 6 11 10 7 7 5 9 6 7 2 3 15 11 4 9 20 15 5 6 14 19 20 14 14 14 16 17 17 18 19 16 14 14 16 17 16 16 16 16 14 10 13 14 14 13 10 11 12 14 14 15 13 12 13 14 15 16 13 13 14 16 14 11 9 6 7 7 7 10 9 7 7 8 8 9
1 7 12 11 12 11 8 6 11 16 9 8 7 7 4 10 11 5 5 6 3 13 16 10 8 10 14 21 12 11 16 17 9 6 8 9 13 16 16 18 16 14 14 13 15 16 16 12 10 7 9 13 11 10 11 12 12 11 11 13 15 17 14 13 15 15 17 15 14 15 16 17 17 14 10 8 9 7 7 10 10 9 9 7 8 7
9 1 5 3 9 5 5 2 6 10 8 16 5 7 7 3 1 4 2 5 14 15 13 14 15 16 14 22 10 16 9 8 14 14 6 13 15 16 15 15 16 13 13 13 11 12 11 9 7 7 11 13 13 9 11 12 12 12 13 14 16 16 15 14 14 14 15 14 15 15 15 16 17 14 11 13 14 12 12 11 10 7 6 8 7 7
13 11 1 7 9 13 10 10 3 3 7 10 7 11 14 5 6 11 7 12 14 13 13 18 16 7 21 28 3 6 8 9 6 6 10 12 14 16 16 16 15 11 9 9 10 11 11 12 13 12 13 12 11 13 15 16 14 13 13 15 16 16 15 15 14 15 16 15 16 16 16 16 14 13 13 13 13 11 12 11 10 8 10 7 8 9
6 9 9 5 5 10 12 14 7 5 8 10 8 10 14 11 9 9 9 6 7 6 9 2 14 15 8 20 27 25 16 7 7 7 5 7 11 12 13 13 15 13 11 12 12 12 13 13 14 14 14 14 13 14 15 14 13 12 13 15 16 18 15 14 14 16 15 17 17 16 16 15 13 13 13 13 13 12 11 9 11 11 11 10 11 9
7 13 13 10 8 12 14 15 16 13 14 16 12 12 10 8 6 11 8 12 11 4 2 2 8 7 14 14 3 5 4 13 18 13 8 8 9 11 13 13 11 9 8 9 9 11 13 13 12 12 13 13 13 13 13 11 13 12 13 14 17 16 14 15 16 14 16 16 16 15 15 15 12 12 12 13 12 11 11 10 11 11 9 10 10 9
13 10 2 21 7 19 19 12 13 9 7 9 9 8 10 15 4 14 4 7 8 3 1 8 9 5 14 14 3 3 2 1 1 8 7 10 9 8 9 11 11 10 9 6 8 10 12 12 11 10 10 11 11 12 11 12 12 13 14 15 16 18 16 17 17 16 18 17 15 16 16 16 15 12 11 10 10 11 11 11 11 11 10 10 7 6
2 7 2 10 11 16 16 13 11 13 11 6 5 12 13 6 15 7 6 0 2 3 15 4 6 7 10 19 16 19 9 5 1 2 5 7 7 7 10 10 9 10 9 8 9 11 14 11 9 10 11 11 11 10 12 14 14 15 14 13 14 15 12 14 16 18 16 16 15 16 16 15 13 14 14 15 15 14 11 10 10 10 9 7 7 7
1 4 3 2 15 12 14 15 13 18 6 8 12 13 4 7 6 7 12 3 10 11 6 10 16 7 8 17 3 16 16 15 6 7 9 11 9 12 13 10 13 13 13 13 12 11 10 8 9 9 9 10 12 14 13 14 12 13 14 15 16 15 16 15 16 16 15 15 16 15 16 16 16 15 16 15 14 11 9 9 9 7 7 9 7 8
3 8 3 3 8 8 6 10 10 13 14 13 11 11 13 8 11 3 1 11 5 12 9 11 9 14 14 21 5 1 12 13 11 11 10 11 13 16 15 16 16 14 12 12 13 12 11 8 8 8 9 9 9 8 10 11 11 10 10 11 14 17 17 18 16 16 15 16 14 14 16 17 16 15 14 13 12 8 10 11 10 10 9 6 8 8
1 8 6 1 4 1 3 9 15 11 8 3 5 3 3 1 11 13 11 2 3 11 5 13 10 14 11 17 22 16 9 7 11 12 12 16 15 15 14 15 16 15 16 16 13 10 9 10 11 12 12 12 12 10 9 8 6 9 11 11 11 11 9 10 11 12 13 14 14 13 12 12 13 13 13 12 11 11 12 12 10 10 8 10 7 9
4 4 15 1 2 3 7 8 13 15 16 10 2 2 2 5 1 2 2 12 7 7 11 10 14 8 13 13 18 15 15 8 9 12 13 12 13 14 13 14 15 16 15 12 10 9 10 11 11 12 11 10 6 5 6 7 10 11 9 9 11 13 13 12 13 12 14 12 13 13 13 14 13 14 12 11 11 11 12 10 9 9 9 6 9 9
3 5 13 9 3 5 5 3 4 5 7 10 13 13 14 14 11 10 13 5 11 10 8 8 19 7 5 4 8 10 12 8 11 11 11 12 14 15 15 17 16 14 14 8 7 8 10 9 8 6 4 4 5 7 8 8 7 7 9 11 11 10 11 11 12 13 13 12 12 14 14 14 11 11 10 11 11 12 11 10 10 8 7 10 9 9
6 2 8 14 10 13 12 5 1 6 4 2 1 6 7 13 11 12 14 9 1 10 3 3 6 12 2 2 5 9 9 11 14 14 14 13 16 17 18 18 14 8 7 6 7 8 7 7 7 6 6 7 9 8 7 6 8 9 10 9 9 11 13 12 13 12 11 11 11 13 13 11 10 10 10 12 11 11 11 9 8 8 9 9 8 8
4 2 2 10 6 10 2 2 3 1 4 6 5 4 8 10 14 15 14 8 11 10 12 11 14 15 7 2 6 5 4 5 5 7 12 10 8 12 15 7 6 5 6 7 6 6 7 5 5 4 5 7 7 6 8 8 7 8 8 9 8 11 12 10 9 9 9 10 11 10 9 9 8 8 9 11 10 11 9 8 7 7 9 9 8 9
8 4 8 9 5 5 9 3 3 2 3 6 10 9 10 11 13 9 4 3 5 9 13 11 20 13 6 3 2 2 6 6 7 6 6 8 9 10 9 6 3 5 6 7 8 8 6 5 6 8 7 7 6 6 5 6 7 8 8 6 8 9 8 7 6 6 7 7 8 7 8 8 8 9 10 10 8 9 8 8 8 8 10 8 8 9
6 3 10 11 14 15 15 14 14 11 11 6 5 15 15 16 16 9 10 9 15 10 13 13 13 14 8 3 6 4 5 6 7 7 5 5 8 11 9 6 6 5 7 7 6 5 8 8 7 6 6 6 7 7 7 6 6 6 5 7 6 6 5 6 5 6 7 7 8 9 9 9 8 10 10 10 9 9 9 9 8 9 8 9 10 8
3 2 7 11 13 14 13 7 3 6 4 6 3 10 14 18 20 17 9 12 17 8 12 12 12 15 20 13 13 6 6 5 7 7 8 9 9 9 7 8 7 7 7 8 7 6 4 5 11 11 8 8 6 5 6 5 6 5 6 6 6 6 6 5 6 6 7 7 8 9 9 9 10 9 9 9 9 8 8 9 9 9 9 8 8 9
2 7 10 11 14 13 9 4 3 2 7 6 7 4 4 4 5 13 16 13 4 11 19 8 12 14 25 21 21 14 4 5 6 7 7 8 9 10 8 7 8 7 7 5 6 7 9 10 9 9 8 6 6 5 5 6 7 8 8 8 7 5 6 6 7 7 8 8 9 9 9 9 8 9 9 9 8 8 8 7 7 8 6 6 8 8
4 5 7 9 14 13 13 3 4 1 3 4 7 7 6 6 6 8 6 5 9 9 9 8 12 19 25 23 20 12 4 9 8 9 8 5 5 5 5 6 9 11 10 8 10 8 8 9 9 8 5 7 7 7 8 7 6 5 4 4 4 5 6 5 7 7 8 8 9 10 9 8 7 6 6 6 7 7 8 8 7 6 6 6 7 6
1 6 5 7 12 12 13 11 5 6 4 5 7 9 9 7 9 9 11 12 11 13 14 16 23 25 21 21 18 9 8 8 7 3 2 3 5 5 5 7 10 10 8 9 8 7 8 8 7 7 4 5 8 9 8 6 7 6 6 5 5 6 5 5 7 8 8 9 11 8 6 6 6 6 6 7 8 8 7 7 7 7 7 7 7 6
5 5 7 4 6 12 11 10 11 12 11 13 13 12 9 6 7 11 11 16 16 12 14 17 20 23 24 22 17 5 5 4 5 5 8 6 5 6 7 9 10 9 8 7 7 8 8 8 7 5 6 8 10 12 11 11 9 7 6 6 7 7 7 6 7 7 7 10 6 5 5 6 7 6 8 8 6 6 8 8 7 7 7 7 7 7
4 3 4 3 10 13 10 9 12 12 13 14 15 12 10 12 13 14 13 14 11 15 16 14 16 17 20 24 7 4 3 7 11 11 10 9 8 7 7 9 8 9 9 8 8 6 6 7 6 7 9 9 9 8 4 6 7 7 9 8 8 7 6 6 6 7 8 6 5 6 7 7 7 8 8 7 8 8 7 7 8 8 8 7 7 7
4 0 0 3 9 10 8 10 12 8 7 12 16 17 18 18 16 11 9 10 14 14 15 14 17 18 18 3 6 13 6 5 4 5 8 10 9 8 9 10 10 10 11 6 4 4 5 7 7 8 8 6 9 8 6 5 6 9 9 9 8 7 8 9 8 8 7 6 7 7 7 7 9 9 8 8 8 7 7 8 8 8 8 8 6 6
4 3 1 1 2 1 2 7 7 6 12 10 3 10 13 14 15 17 16 17 18 13 11 14 17 12 4 11 17 16 3 5 5 6 5 7 7 6 7 7 9 8 6 6 6 5 6 6 7 6 6 7 7 7 6 8 8 8 6 7 7 9 8 9 8 8 8 7 7 7 7 8 8 9 8 7 7 8 8 8 9 7 5 6 6 7
6 4 2 1 1 4 3 4 7 14 11 1 4 4 12 16 16 17 19 15 13 11 14 19 20 20 19 6 4 7 7 5 4 6 8 7 6 6 7 7 8 7 9 8 7 7 7 6 5 5 6 7 8 8 6 6 6 3 5 7 8 8 9 9 8 8 8 8 8 7 8 9 9 9 8 8 8 8 8 8 7 7 7 7 7 8
7 6 3 2 3 2 4 4 7 2 1 5 5 1 2 7 10 8 12 17 18 17 15 18 22 21 19 16 14 11 8 8 6 7 10 10 9 8 5 7 7 7 8 9 7 7 6 6 8 7 9 6 8 8 8 7 5 6 5 5 8 8 8 9 9 9 8 9 10 10 9 9 9 8 8 8 8 9 9 8 9 8 6 5 4 4
5 4 3 3 3 3 3 2 7 8 11 4 2 1 2 3 6 10 9 13 16 17 17 18 22 20 18 17 17 13 6 6 8 11 8 7 4 5 7 7 7 8 8 7 4 6 5 7 8 10 8 8 7 6 6 6 7 6 5 6 6 8 8 8 10 11 11 11 10 10 10 10 10 9 9 9 9 10 9 9 8 7 6 7 6 7
3 5 3 4 4 5 2 4 4 3 3 2 2 1 1 0 0 2 3 12 8 9 9 15 19 19 18 15 13 4 1 7 14 14 11 9 1 1 4 6 7 5 4 5 4 5 7 9 10 10 11 12 9 5 5 6 7 7 7 6 7 8 8 9 11 11 12 12 11 11 11 10 10 10 9 9 11 11 8 6 5 7 7 9 9 8
2 1 2 3 1 4 3 3 3 3 5 1 6 5 4 1 2 4 4 7 5 10 11 12 16 15 16 14 7 5 5 8 16 16 6 5 7 2 3 5 5 7 11 12 11 13 15 7 9 12 10 9 10 5 5 5 6 7 7 7 7 7 8 10 11 10 13 15 13 11 10 10 10 10 10 11 10 8 9 9 8 6 6 6 6 6
3 2 2 3 4 3 3 4 4 4 5 6 5 5 6 2 1 5 4 2 4 10 9 5 5 7 6 3 4 7 9 11 15 3 1 3 3 6 11 18 21 19 18 12 10 8 9 10 6 7 8 8 9 1 5 5 5 5 6 6 5 8 10 12 15 14 8 4 7 9 10 10 11 10 10 10 7 7 7 6 6 8 8 5 5 6
5 2 5 7 2 5 6 2 2 5 6 5 7 6 3 3 5 7 6 3 0 4 7 8 5 3 1 1 4 5 7 10 6 3 6 3 3 4 4 6 9 10 14 16 16 12 8 10 8 11 13 9 4 2 5 6 6 7 6 6 7 11 14 15 10 5 6 6 6 8 11 10 11 12 9 8 8 7 6 7 7 7 7 7 6 6
1 1 1 1 3 5 3 3 6 5 7 8 4 1 1 5 5 6 2 2 2 2 4 7 8 7 5 1 3 5 6 7 8 10 7 7 8 9 7 7 7 9 9 10 13 12 11 12 10 11 9 7 5 4 5 7 8 8 6 7 12 15 13 9 5 6 6 8 8 8 9 9 8 8 8 8 8 9 8 6 7 7 7 6 7 8
8 7 6 7 3 1 1 1 1 3 3 4 6 2 2 3 2 3 2 2 2 3 5 5 4 6 3 8 7 5 7 8 8 7 7 7 6 6 7 5 6 9 10 9 9 9 7 8 10 10 10 8 7 6 6 7 8 7 7 10 15 12 10 6 5 7 7 7 7 8 8 9 10 10 8 9 9 9 8 7 8 8 7 8 8 8
3 4 2 2 4 5 5 7 7 8 1 4 2 4 4 7 2 3 3 6 3 4 5 6 4 4 4 6 7 9 7 7 9 8 10 12 11 8 5 5 5 6 8 8 9 10 7 8 9 9 7 7 6 5 5 9 10 8 9 15 11 9 7 5 6 7 7 8 8 8 8 8 9 9 8 10 10 9 9 9 8 8 8 8 8 8
5 7 5 5 6 6 7 9 9 6 4 1 1 1 1 4 5 2 3 3 4 6 2 4 8 6 4 5 7 7 8 7 7 8 7 10 11 12 11 10 8 8 8 10 11 5 4 7 10 10 10 7 6 6 6 7 10 10 12 10 7 11 10 8 7 8 8 9 8 8 7 7 8 9 9 9 10 11 10 10 10 10 8 9 8 8
2 1 2 1 4 4 6 7 3 6 7 7 3 4 3 2 2 5 5 7 5 4 4 4 6 7 7 4 4 7 6 6 7 9 9 9 9 11 10 10 11 9 9 8 9 7 5 6 7 8 10 13 6 5 5 6 8 11 10 6 7 8 2 5 5 6 8 7 6 7 7 8 6 7 7 8 8 8 8 10 10 10 9 9 9 8
2 0 1 3 2 1 7 3 8 11 6 6 8 7 2 3 3 2 3 3 1 4 7 6 7 7 5 5 5 6 9 7 7 8 7 8 10 10 10 11 12 11 11 13 12 8 9 6 8 10 8 10 10 2 4 6 7 10 8 7 6 2 4 5 7 7 6 7 7 7 8 9 8 7 7 8 7 7 7 8 8 8 9 9 9 9
1 0 1 2 1 5 9 2 5 3 6 9 6 5 6 3 2 3 0 0 1 2 1 4 7 9 7 9 8 7 8 7 7 9 9 9 9 9 10 11 12 13 14 11 10 7 7 7 7 10 10 11 12 6 5 5 7 7 7 7 3 3 4 6 8 9 9 9 8 8 9 9 10 10 8 9 9 9 8 8 9 10 12 13 13 12
2 3 3 2 2 7 10 11 9 9 13 15 6 3 4 3 4 6 5 3 1 3 6 6 2 3 5 7 6 6 7 10 6 6 7 9 9 10 10 10 11 10 11 13 13 9 8 8 9 9 9 12 10 9 8 9 7 5 6 6 5 5 7 8 7 7 6 7 7 8 8 8 8 8 8 8 8 8 8 10 10 11 8 6 5 7
1 5 2 1 4 8 10 5 2 3 8 5 6 4 6 6 5 9 8 6 4 5 6 9 13 9 3 3 4 4 6 7 8 7 8 8 8 8 9 10 10 11 12 10 8 9 10 7 5 9 9 10 8 9 9 9 9 5 4 4 4 5 8 8 7 7 7 7 7 7 8 8 8 9 8 8 9 8 6 6 10 8 8 8 8 9
7 5 4 4 5 11 10 6 6 4 6 6 8 11 7 8 10 13 14 10 4 3 4 6 10 12 14 6 1 2 4 6 8 7 7 7 10 9 6 6 10 11 12 10 12 15 13 11 6 6 7 7 7 7 8 9 9 7 5 3 3 5 6 5 7 6 6 6 7 7 7 7 7 8 8 8 8 8 8 6 6 9 8 8 8 10
Wind_Direction
148 182 191 197 204 204 205 207 216 178 135 205 216 214 216 217 247 237 224 241 202 233 225 225 235 227 226 239 244 234 218 214 230 239 234 237 235 232 232 232 234 235 240 245 234 234 226 225 222 216 203 208 204 206 203 203 206 205 204 195 206 199 192 192 192 194 194 199 202 207 209 213 207 211 210 215 214 215 215 213 215 213 210 206 205 206
182 201 205 207 211 204 203 202 214 227 252 181 163 191 212 189 234 204 203 252 209 184 255 215 239 240 233 242 252 243 221 224 220 227 233 239 233 232 230 237 235 236 251 240 240 234 228 221 213 204 206 197 202 209 202 207 208 207 203 203 207 189 197 199 197 196 197 200 200 198 207 206 207 205 207 217 215 216 215 215 216 214 210 208 208 204
202 202 206 211 209 201 200 201 206 214 225 223 211 188 205 234 229 301 227 208 207 158 258 256 264 255 240 240 253 241 232 227 219 219 224 225 237 228 230 237 242 248 246 232 239 234 221 220 213 204 206 206 209 207 208 212 210 207 205 211 201 199 198 203 200 194 203 201 202 199 203 200 212 213 214 220 218 212 216 218 218 214 208 209 210 205
206 213 217 215 201 195 209 203 203 215 230 224 219 204 229 218 149 264 292 94 234 186 229 256 274 269 256 240 247 249 240 238 228 227 230 223 231 232 225 225 232 236 239 234 234 231 220 209 211 210 211 210 204 209 212 209 210 209 211 208 203 203 201 200 202 203 204 198 197 204 199 202 201 203 208 220 224 218 216 224 216 215 210 207 209 206
203 200 213 196 179 198 211 201 198 204 222 222 219 222 225 158 196 208 249 219 225 279 53 309 293 279 243 242 247 252 237 236 234 232 238 240 232 241 240 240 233 236 232 234 242 242 224 211 212 208 209 200 203 210 209 204 205 207 209 208 205 204 201 202 199 201 193 178 181 185 171 166 216 261 201 213 230 221 221 225 214 217 205 208 210 205
244 246 112 180 197 207 206 201 204 197 224 223 223 214 208 163 177 328 319 106 313 271 227 145 286 263 257 232 231 237 225 232 220 222 228 231 228 231 239 236 238 239 237 229 233 234 221 214 220 216 210 204 215 215 211 203 206 206 211 208 207 208 207 204 199 193 184 189 187 178 188 198 205 216 210 216 218 211 216 220 217 212 206 210 211 208
220 198 182 191 205 207 202 211 209 195 218 217 220 201 203 202 215 195 321 129 241 236 282 178 212 272 89 243 221 224 234 238 216 222 226 226 230 227 233 234 233 233 239 236 240 242 227 220 218 216 208 210 214 217 206 203 209 209 211 207 204 205 206 203 198 186 186 192 196 197 201 204 204 214 224 225 223 218 221 211 215 217 204 207 208 212
183 214 179 199 204 202 199 211 201 189 205 233 201 177 179 210 214 214 231 226 249 302 301 343 224 266 285 253 209 213 231 244 232 228 224 229 229 231 231 234 231 231 231 230 228 231 227 224 211 215 211 210 215 214 195 206 209 208 209 202 203 206 206 202 194 188 191 195 198 201 207 209 213 215 225 211 218 211 198 202 213 209 210 203 206 210
182 191 205 200 202 198 212 211 195 188 203 240 134 137 194 202 204 162 202 238 264 24 272 173 8 292 260 274 168 174 239 252 243 227 220 221 224 230 234 235 232 229 227 223 227 227 224 222 217 218 216 213 214 202 200 209 208 206 204 204 205 206 205 201 192 193 197 200 198 201 204 212 220 222 230 206 196 200 195 213 207 206 209 204 206 208
286 188 204 202 191 209 212 207 171 170 211 208 150 161 175 142 149 181 189 200 224 205 249 226 163 251 275 257 181 199 214 241 243 228 226 214 217 224 230 237 236 232 233 229 227 231 230 225 222 219 220 212 210 206 206 212 209 208 202 203 202 208 203 199 195 196 199 202 199 201 205 211 219 217 222 188 205 201 189 217 214 209 206 207 205 208
207 250 199 197 209 210 202 186 176 189 203 107 146 105 112 159 189 170 161 144 189 230 234 217 188 201 271 265 203 191 215 226 255 244 215 211 224 228 229 235 237 226 230 230 228 232 234 230 230 220 213 218 216 207 204 207 203 203 202 203 203 208 201 196 198 195 201 200 200 207 206 210 217 213 207 204 216 205 197 216 216 208 212 202 211 196
241 80 171 226 189 200 97 145 210 186 163 147 172 146 117 231 90 202 232 175 222 234 221 204 197 185 228 269 211 216 226 198 222 239 180 210 217 223 229 234 241 228 227 229 231 241 240 243 234 211 217 218 216 201 203 209 204 199 199 200 205 208 201 198 198 196 202 198 205 211 210 213 217 209 205 209 218 208 212 216 216 207 203 211 203 201
228 220 166 192 191 171 162 175 195 106 141 170 146 147 184 188 160 223 152 215 215 219 216 209 182 196 224 250 160 226 222 233 251 242 210 204 214 221 228 232 241 234 228 225 223 226 227 222 222 216 220 220 212 206 206 207 202 200 200 199 203 209 201 198 193 197 200 199 205 207 210 216 216 211 210 214 220 211 213 213 214 200 213 201 202 208
234 217 201 191 151 179 170 188 145 179 180 182 192 169 180 199 203 216 200 227 237 239 239 227 169 224 254 270 256 254 242 243 243 242 244 222 218 220 229 236 238 237 218 221 219 221 223 219 221 216 215 216 215 212 210 207 201 200 201 200 202 211 197 196 194 198 199 204 207 207 209 214 211 212 211 217 220 215 214 209 213 210 212 205 212 202
224 210 218 180 217 158 195 195 177 184 171 197 187 195 200 196 207 218 198 215 217 216 325 159 149 215 176 233 50 153 224 238 240 226 211 220 227 226 227 234 244 253 238 221 223 224 226 227 222 218 215 217 215 213 210 206 205 201 202 200 204 209 198 194 196 196 200 205 207 207 210 213 210 211 210 218 219 215 212 213 213 214 209 210 211 203
230 257 133 195 189 169 192 193 184 170 188 198 194 198 213 219 207 242 192 224 215 184 179 190 204 172 214 252 176 188 176 347 305 220 211 232 235 238 249 247 245 246 248 230 231 235 234 229 222 220 219 219 216 214 210 207 204 203 206 203 204 205 198 195 195 198 201 203 204 206 207 211 209 209 212 219 218 220 214 213 209 215 208 211 200 191
158 224 264 197 190 192 192 177 196 154 202 160 177 219 220 237 219 250 318 25 43 156 231 149 282 285 327 280 257 259 237 241 207 265 272 265 262 264 256 259 262 256 250 240 231 231 232 229 225 218 217 216 213 211 208 209 204 203 203 203 207 210 204 199 200 201 200 202 202 207 208 209 207 208 209 214 216 215 211 208 210 212 208 197 193 188
214 242 353 151 203 211 193 191 179 189 162 130 209 209 165 72 87 184 229 160 212 227 233 181 222 227 205 268 253 229 237 233 195 210 224 234 244 252 248 244 245 244 241 237 235 236 239 236 232 226 223 218 212 211 212 212 208 205 204 201 203 205 204 202 201 202 200 200 203 207 207 209 207 208 213 216 218 209 202 209 210 202 197 200 187 180
121 285 257 220 222 220 201 173 216 211 183 192 206 188 183 174 235 187 1 225 174 218 237 232 212 227 196 246 254 197 214 223 205 207 206 223 227 237 244 246 246 247 251 248 238 232 233 231 236 234 232 229 227 221 218 217 210 209 209 209 207 208 206 202 199 200 203 201 202 205 205 205 206 210 213 215 215 198 202 209 207 204 205 178 178 181
147 231 254 297 153 265 170 177 198 197 233 34 8 245 154 330 232 212 197 312 188 237 206 242 196 235 204 233 247 236 226 191 200 211 212 215 218 225 230 237 243 245 242 241 238 230 224 225 222 220 221 221 216 215 219 217 207 209 209 205 211 216 214 213 210 203 207 206 205 206 205 208 210 211 211 211 204 204 207 210 203 203 194 194 172 189
235 153 252 125 297 121 235 185 198 185 197 209 205 273 163 208 345 30 253 219 212 230 229 249 243 217 225 225 242 243 242 209 201 211 219 222 226 233 231 231 237 237 240 238 231 230 230 229 228 224 220 220 214 216 214 208 208 212 207 208 206 208 208 207 207 203 209 204 207 205 204 206 205 208 207 207 203 206 212 208 199 201 196 161 193 186
173 192 227 227 215 217 249 284 267 227 219 214 195 201 194 186 209 208 233 206 225 224 225 218 249 247 266 226 225 242 242 201 212 211 218 217 221 229 231 233 236 239 238 231 230 232 235 236 239 255 259 230 205 215 210 213 211 214 208 208 206 207 209 206 207 207 208 207 204 205 208 209 205 205 202 203 203 207 209 204 200 192 168 191 195 184
175 170 218 237 229 234 224 214 179 122 96 101 322 262 228 220 203 215 229 212 30 238 307 236 322 255 222 231 234 221 221 201 208 205 216 215 215 222 230 232 242 254 259 245 245 247 247 238 231 219 217 226 217 210 204 201 204 211 213 207 208 203 212 206 209 207 206 205 204 210 211 206 203 199 200 201 204 207 206 201 194 177 186 196 193 192
58 140 197 270 288 286 326 145 286 342 65 323 264 226 272 245 218 217 223 215 219 209 222 234 244 257 251 262 238 252 274 256 244 207 220 228 232 235 239 269 290 274 262 266 271 268 252 252 249 207 212 223 227 216 210 207 206 214 211 210 205 210 213 209 209 205 204 206 209 209 205 204 198 191 195 201 204 204 203 193 187 181 193 200 188 193
187 192 195 228 259 262 261 206 229 57 134 204 248 228 240 264 259 259 327 47 243 200 220 216 241 249 264 264 285 283 270 263 251 251 215 231 248 248 253 260 248 248 260 264 256 253 260 262 245 231 213 210 219 221 214 208 209 209 213 203 206 215 214 208 198 194 202 202 204 202 198 200 191 193 195 200 195 200 195 191 189 189 199 193 195 199
200 170 176 212 220 228 232 228 229 224 212 211 204 239 231 235 249 255 231 214 238 201 207 226 248 255 260 287 275 271 273 274 265 253 269 236 248 259 262 272 279 275 262 265 264 249 241 234 235 236 223 214 214 209 204 204 206 207 208 213 210 212 205 204 182 190 191 196 198 203 201 199 192 195 196 194 194 196 193 191 193 195 202 193 199 196
194 222 211 211 218 231 243 259 349 87 65 169 232 201 221 215 224 235 254 226 226 218 230 221 238 262 261 255 266 255 245 239 260 254 237 248 257 259 255 260 256 251 245 248 254 262 281 268 238 224 215 212 208 202 198 194 197 197 201 213 214 206 195 192 178 189 191 194 202 201 204 196 195 193 194 194 196 192 189 192 195 191 198 194 197 192
131 218 216 222 241 252 267 285 242 152 163 191 197 209 163 192 237 232 226 240 235 244 243 217 228 240 255 250 248 241 242 275 269 272 272 258 244 243 252 253 256 266 268 266 261 246 236 239 247 236 214 200 203 192 199 198 194 192 192 202 203 195 191 186 180 187 192 190 200 204 203 201 194 195 196 195 191 188 189 186 186 195 190 177 196 196
176 216 218 213 243 251 261 245 175 253 215 192 201 208 215 205 190 232 265 293 311 264 274 268 244 239 252 254 253 252 178 238 242 254 262 253 258 264 259 260 254 242 243 238 244 245 239 239 237 235 212 199 180 189 198 196 203 207 212 207 183 179 197 178 179 187 191 191 199 206 202 197 198 194 190 185 182 183 185 186 185 180 178 184 195 197
195 240 227 197 240 247 254 257 232 219 247 245 229 233 230 216 232 226 251 259 253 258 270 281 288 278 269 266 263 248 208 216 230 235 329 290 258 263 253 251 253 257 251 249 248 245 251 258 268 270 245 214 200 189 185 196 202 197 192 193 182 187 186 162 193 188 193 199 206 203 192 185 181 185 182 181 188 190 181 179 179 176 180 188 190 190
184 244 208 181 251 251 246 243 243 242 244 255 252 245 237 242 256 247 249 255 255 257 250 253 257 266 269 271 270 262 220 229 270 264 244 249 258 247 236 242 248 257 261 258 249 240 237 240 249 269 277 257 232 203 184 189 183 177 187 193 190 194 181 178 191 200 200 211 203 177 165 170 184 176 187 192 184 178 179 179 175 177 180 182 182 183
162 267 40 186 225 253 238 229 233 233 239 246 256 244 237 232 241 237 223 224 217 232 251 253 257 261 264 261 297 276 194 208 223 234 242 247 243 247 249 257 264 262 259 252 249 258 263 259 248 239 237 245 271 285 226 181 175 173 196 189 191 186 165 184 198 201 209 208 179 180 180 182 176 183 190 181 189 182 179 170 172 179 179 174 177 178
189 123 84 223 228 244 238 205 221 217 237 246 237 235 224 226 223 247 244 234 223 211 231 238 246 243 260 300 258 254 199 230 270 255 246 243 239 221 227 238 245 250 248 246 255 249 258 262 256 252 255 248 244 233 226 177 168 201 198 187 184 155 177 193 200 203 207 199 189 190 186 178 181 186 184 190 181 173 170 175 177 180 178 182 172 153
129 138 193 311 245 318 310 193 168 181 226 231 252 226 207 215 213 226 235 225 230 203 222 227 246 261 264 234 241 255 209 221 215 253 229 239 249 242 252 254 252 261 281 276 257 247 245 247 250 239 241 250 252 237 214 189 199 206 190 172 152 170 186 189 202 203 205 194 197 188 184 181 183 189 187 178 173 172 175 179 188 183 176 162 165 174
157 148 199 217 256 268 268 194 177 221 229 109 309 258 186 208 217 219 238 244 249 230 235 253 253 251 249 251 264 247 229 243 234 250 274 244 221 218 228 240 254 251 253 260 265 249 237 239 251 259 266 255 235 228 191 207 210 177 154 162 167 177 178 191 196 202 198 195 193 184 184 185 187 186 179 176 174 175 181 184 176 176 179 174 177 179
166 157 181 205 225 313 8 226 231 199 39 291 274 308 236 212 221 224 254 252 246 242 234 246 252 254 254 247 238 242 243 263 283 255 246 247 202 215 213 242 243 234 256 254 253 272 272 269 263 262 259 222 202 202 194 197 171 172 190 175 172 173 182 182 193 202 196 197 193 190 187 183 185 183 178 178 178 181 185 185 182 178 171 167 168 167
159 138 148 218 182 209 239 301 270 321 325 356 55 27 110 164 169 180 230 257 241 241 235 241 251 252 255 254 250 245 260 303 301 287 263 242 226 192 207 234 235 243 249 284 329 314 302 285 283 271 268 268 232 204 194 164 161 168 163 178 182 171 179 183 196 202 199 201 192 188 184 183 183 184 183 182 184 192 191 184 181 172 161 167 176 177
141 152 211 150 230 182 244 289 331 4 292 287 173 257 99 92 226 204 195 273 295 286 250 244 253 258 258 258 260 272 333 291 274 266 270 288 136 219 257 249 270 287 297 279 251 225 224 234 247 255 253 255 256 219 164 162 161 164 172 188 177 173 184 193 211 204 198 200 194 187 182 181 182 185 184 185 196 195 189 177 173 179 174 177 175 183
96 96 328 223 240 108 145 169 210 195 239 148 262 252 247 259 211 145 138 265 337 321 296 257 253 254 257 262 278 106 144 232 252 257 329 321 320 309 251 259 258 282 297 300 294 291 289 269 196 227 234 249 263 231 165 159 160 164 186 189 188 177 186 209 218 209 206 203 191 180 176 177 181 186 187 195 199 186 183 186 183 170 170 180 172 176
179 203 193 239 225 214 146 152 222 213 244 237 222 256 263 219 121 119 178 227 331 321 328 350 319 325 329 358 155 185 186 235 249 305 296 286 283 294 325 318 311 311 305 299 295 277 278 293 282 252 246 253 259 128 148 142 162 192 190 194 191 182 204 218 219 215 218 204 175 172 173 178 182 187 189 193 182 179 180 162 161 174 177 177 173 168
181 209 202 228 220 227 210 251 340 296 270 240 252 256 287 101 132 179 204 140 186 315 19 31 17 317 273 160 167 202 237 237 279 190 230 277 336 306 267 241 256 268 282 290 286 289 292 288 287 283 284 279 277 138 160 149 170 204 202 176 192 215 214 220 218 195 190 181 179 179 180 180 185 186 187 180 176 165 160 168 170 162 170 171 167 162
134 131 166 164 222 208 197 193 233 259 238 210 256 136 116 116 213 215 130 181 184 37 23 36 15 355 348 336 218 246 264 279 289 307 302 262 241 250 239 234 252 271 268 272 289 302 300 294 291 285 284 276 256 195 169 176 192 211 186 186 211 222 226 225 185 171 175 185 189 187 183 183 181 178 173 163 159 167 172 168 160 167 167 165 166 171
184 158 200 183 179 86 160 167 302 273 292 142 139 81 104 137 224 104 185 269 218 37 42 5 18 339 10 339 311 274 287 299 300 290 282 292 289 279 285 271 244 246 258 268 273 261 248 272 275 267 264 263 244 210 184 180 207 213 198 208 224 225 232 208 161 172 180 180 185 192 191 183 173 171 166 167 168 166 168 164 164 167 168 167 169 172
158 115 214 227 172 150 173 194 209 215 226 265 94 136 200 223 171 146 16 344 21 358 15 351 327 325 329 313 305 309 302 303 315 322 332 326 323 319 302 286 281 277 276 263 244 263 276 276 273 271 260 251 250 233 194 185 214 217 211 226 228 228 224 169 178 169 177 185 190 184 188 186 175 167 166 166 164 166 165 170 171 168 175 175 173 175
211 184 176 175 210 165 198 212 229 236 218 258 212 237 234 331 36 92 45 4 2 350 10 352 332 331 318 296 300 296 301 308 301 307 319 307 317 316 321 317 307 300 297 299 298 296 283 264 273 277 279 255 219 229 216 204 214 226 227 236 219 228 211 187 178 176 184 192 189 186 179 173 178 171 167 168 167 169 172 170 170 176 184 176 180 180
327 190 204 92 264 275 266 228 284 327 305 286 234 215 281 7 24 43 30 22 9 320 325 336 313 323 326 311 309 315 298 305 320 320 321 317 315 313 319 325 324 319 313 309 309 328 297 289 281 283 283 289 255 204 214 221 214 227 233 238 232 242 188 179 181 191 199 191 182 174 159 166 168 165 167 169 177 181 178 175 179 183 179 182 187 187
289 164 134 202 274 40 258 286 232 249 282 319 315 320 37 65 4 66 42 60 317 321 337 345 338 324 308 301 309 305 309 325 328 320 319 317 324 325 325 321 317 317 318 316 314 330 323 328 311 302 300 293 300 286 220 215 221 232 254 252 255 221 162 188 194 204 194 189 178 165 165 170 173 168 169 175 178 184 181 179 181 183 182 189 186 189
320 143 48 242 200 215 247 313 296 301 270 270 273 307 317 324 336 340 14 200 216 255 266 308 330 333 338 336 333 330 316 319 334 332 331 330 326 327 325 323 320 322 319 315 311 325 315 317 303 302 305 298 294 326 306 265 249 240 242 255 259 180 178 196 202 202 203 190 175 171 171 177 172 170 172 180 181 183 185 187 186 190 191 191 189 185
183 82 246 164 209 277 301 286 289 314 301 292 286 193 222 247 293 303 310 312 346 357 332 324 302 278 311 310 316 326 334 325 330 322 320 324 333 336 333 324 316 310 308 318 321 333 321 314 311 300 304 293 305 315 307 291 275 254 240 238 219 186 187 201 202 207 194 180 171 174 173 174 174 177 174 177 186 196 194 189 190 196 201 207 202 202
113 234 202 80 304 270 246 263 93 265 264 268 287 273 301 289 289 295 298 304 331 343 335 328 321 318 283 247 292 316 321 315 320 328 332 326 322 322 328 325 320 316 313 309 309 313 314 309 290 298 300 300 310 309 300 292 292 286 263 223 204 191 200 200 187 188 189 180 182 176 173 178 179 179 176 177 182 183 194 195 192 198 197 197 187 187
197 212 122 187 197 254 248 207 210 227 274 235 265 291 277 284 298 297 293 293 297 299 302 306 310 316 317 314 181 280 302 307 314 322 321 325 321 320 311 313 320 319 314 320 329 323 324 319 319 297 298 304 311 300 295 295 301 307 307 292 220 199 203 181 185 191 185 179 191 189 186 183 177 179 179 181 180 184 186 180 193 195 202 195 180 181